Tracking 20475 objects as of 26-Feb-2020
HD Live streaming from Space Station
objects crossing your sky now

COSMOS 1217 DEB

Track COSMOS 1217 DEB now!


NORAD ID: 41117
Int'l Code: 1980-085N
Perigee: 591.6 km
Apogee: 40,026.4 km
Inclination: 64.8 °
Period: 722.8 minutes
Semi major axis: 26680 km
RCS: Unknown
Launch date: October 24, 1980
Source: Commonwealth of Independent States (former USSR) (CIS)
Launch site: PLESETSK MISSILE AND SPACE COMPLEX (PKMTR)

Note: This is SATELLITE DEBRIS
aabbcc
Your satellite tracking list
Your tracking list is empty




NASA's NSSDC Master Catalog

Two Line Element Set (TLE):
1 41117U 80085N   20024.63137609 +.00000714 +00000-0 +41379-2 0  9996
2 41117 064.8206 238.6458 7390315 346.0301 001.5916 01.99215729044929
Source of the keplerian elements: AFSPC